Regional Weather Roundup
Issued by NWS

Home | Current Version | Previous Version | Text Only | Print | Product List | Glossary On
Versions: 1 2 3 4 5 6 7 8 9 10 11 12 13 14 15 16 17 18 19 20 21 22 23 24 25 26 27 28 29 30 31 32 33 34 35 36 37 38 39 40 41 42 43 44 45 46 47 48 49 50
000
ASUS42 KKEY 271310
RWRKEY

FLORIDA REGIONAL WEATHER ROUNDUP FOR THE FLORIDA KEYS
NATIONAL WEATHER SERVICE KEY WEST FLORIDA
900 AM EDT MON MAR 27 2017

...SOUTH FLORIDA AND THE KEYS...

CITY           SKY/WX    TMP DP  RH WIND       PRES   REMARKS
FORT MYERS     SUNNY     71  62  73 NE6       30.09R
SW REGIONAL AP SUNNY     66  60  81 NE6       30.10R
NAPLES         SUNNY     69  62  78 NE7       30.09R
MIAMI          MOSUNNY   72  62  71 NW6       30.07R
WEST KENDALL   SUNNY     71  63  75 N6        30.07R
HOMESTEAD      MOSUNNY   69  64  84 NW6       30.06R
MARATHON       SUNNY     77  68  73 N9        30.05R
BOCA CHICA NAS MOSUNNY   75  65  70 NE10      30.05R
KEY WEST INTL  MOSUNNY   76  65  68 NE7       30.06R

...INTERNATIONAL WEATHER...

CITY           SKY/WX    TMP DP  RH WIND       PRES   REMARKS
NASSAU BAHAMAS MOSUNNY   79  63  57 NE10      30.05R
CANCUN MEXICO  MOSUNNY   79  68  69 E9        29.98R
COZUMEL MEXICO MOSUNNY   72  68  88 CALM      29.95R

ADJACENT COASTAL WATERS...

STATION/POSITION TIME  SKY/WX   TEMP    WIND        PRES    WAVE
                                AIR SEA DIR/SP/G            HT/PER
                 (UTC)          (F)     (DEG/KT/KT) (MB)    (FT/S)
PULASKI SHOAL LI 1200            73     100/ 11/ 12 1017.0R
SAND KEY         1250            74      60/ 12/ 15 1018.0R
LONG KEY         1200            72 74   40/  9/ 10 1017.1R
MOLASSES REEF    1200            74 77   90/ 12/ 12 1017.1R
FOWEY ROCKS      1200            74 76   80/ 10/ 11 1017.8R
Buoy 42097       1300                                 N/A     2/ 4

$$



USA.gov is the U.S. government's official web portal to all federal, state and local government web resources and services.